Regional Weather Roundup
Issued by NWS

Home | Current Version | Previous Version | Text Only | Print | Product List | Glossary On
Versions: 1 2 3 4 5 6 7 8 9 10 11 12 13 14 15 16 17 18 19 20 21 22 23 24 25 26 27 28 29 30 31 32 33 34 35 36 37 38 39 40 41 42 43 44 45 46 47 48 49 50
000
ASUS43 KMPX 260010
RWRMN
WEATHER ROUNDUP FOR MINNESOTA
NATIONAL WEATHER SERVICE TWIN CITIES/CHANHASSEN MN
600 PM CST SUN FEB 25 2018


NOTE: "FAIR" INDICATES FEW OR NO CLOUDS BELOW 12,000 FEET WITH NO
SIGNIFICANT WEATHER AND/OR OBSTRUCTIONS TO VISIBILITY. N/A MEANS
CURRENT SKY AND/OR WEATHER CONDITIONS ARE NOT AVAILABLE.

MNZ060>063-068>070-260100-
   Twin Cities Metro

CITY           SKY/WX    TMP DP  RH WIND       PRES   REMARKS
TWIN CITIES    FAIR      29  23  78 SW9       29.88R WCI  20
6HR MIN TEMP:  23; 6HR MAX TEMP:  30;

ST PAUL        FAIR      29  21  72 SW10      29.89R WCI  20
CRYSTAL        FAIR      29  19  66 SW13      29.86R WCI  19
BLAINE         CLEAR     30  21  69 SW12      29.85R WCI  21
LAKEVILLE      FAIR      25  21  86 SW8       29.89R WCI  16
EDEN PRAIRIE   FAIR      28  20  71 SW12      29.87R WCI  18
6HR MIN TEMP:  23; 6HR MAX TEMP:  30;

SOUTH ST PAUL  FAIR      29  22  72 SW8       29.88R WCI  22
LAKE ELMO      FAIR      28  21  74 SW9       29.87R WCI  20
$$
MNZ001>005-007-008-013>017-022>024-027-028-260100-
   Northwest Minnesota

CITY           SKY/WX    TMP DP  RH WIND       PRES   REMARKS
BEMIDJI        CLOUDY    24  19  81 W15       29.71R WCI  12
HALLOCK        MOCLDY    16  12  86 SE8       29.68S WCI   5
ROSEAU         FAIR      21  16  79 SW6       29.68R WCI  14
WARROAD        FAIR      21  18  86 SW7       29.67R WCI  13
THIEF RVR FALL MOCLDY    22  18  85 SW6       29.72R WCI  14
CROOKSTON      FAIR      18  16  93 SW8       29.74R WCI   7
FOSSTON        MOCLDY    21  16  79 SW7       29.74R WCI  13
DETROIT LAKES  FAIR      27  21  80 W9        29.77R WCI  17
MOORHEAD       FAIR      25  18  74 W13       29.78R WCI  13
PARK RAPIDS    CLOUDY    25  20  81 W16       29.73R WCI  12
MAHNOMEN       MOCLDY    22  18  84 SW9       29.75R WCI  12
$$
MNZ006-009>011-018-025>026-260100-
   North Central Minnesota

CITY           SKY/WX    TMP DP  RH WIND       PRES   REMARKS
BAUDETTE       FAIR      21  14  74 W10       29.65R WCI  10
FLAG ISLAND    FAIR      21  16  79 W9        29.63R WCI  11
INTL FALLS     CLOUDY    23  16  74 W10       29.64R WCI  12
6HR MIN TEMP:  23; 6HR MAX TEMP:  27;

WASKISH        CLOUDY    19  16  86 W9        29.70R WCI   9
BIG FORK       CLOUDY    27  19  74 W9G18     29.67R WCI  17
LONGVILLE      CLOUDY    27  19  74 SW9       29.73R WCI  17
GRAND RAPIDS   FLURRIES  27  20  75 W9        29.71R WCI  18
CRANE LAKE     CLOUDY    25  18  74 SW3       29.65R
ORR            MIX PCPN  23  16  74 W9G17     29.63R WCI  13
COOK             N/A     25  18  74 W9        29.66R WCI  15
WALKER         MOCLDY    26  18  73 W12       29.72R WCI  15
$$
MNZ012-019>021-037-260100-
   Northeast Minnesota

CITY           SKY/WX    TMP DP  RH WIND       PRES   REMARKS
DULUTH         CLOUDY    26  18  71 W18       29.69R WCI  13
6HR MIN TEMP:  24; 6HR MAX TEMP:  27;

ELY            CLOUDY    25  18  74 W9        29.63R WCI  15
HIBBING        CLOUDY    25  18  74 W6        29.68R WCI  18
EVELETH        CLOUDY    27  19  74 W16       29.66R WCI  14
DULUTH HARBOR  CLOUDY    28  21  74 SW15      29.75R WCI  17
TWO HARBORS    CLOUDY    30  21  69 W12G21    29.67R WCI  21
SILVER BAY     CLOUDY    28  19  69 SW6       29.65R WCI  22
GRAND MARAIS     N/A     30  19  63 W13G23    29.64R WCI  20
G MARAIS ARPRT CLOUDY    21  16  79 SW13G21   29.57R WCI   9
$$
MNZ029>031-032-039>041-046>048-054>057-064-260100-
   West Central Minnesota

CITY           SKY/WX    TMP DP  RH WIND       PRES   REMARKS
FERGUS FALLS   FAIR      21  18  86 SW13      29.81R WCI   9
WHEATON        CLEAR     23  16  74 SW8       29.86R WCI  14
MORRIS         CLEAR     21  16  79 SW10      29.84R WCI  10
ALEXANDRIA     FAIR      24  18  77 W13       29.81R WCI  12
ELBOW LAKE     FAIR      22  17  81 SW12      29.83R WCI  11
WADENA         FAIR      25  19  80 W14       29.77R WCI  13
GLENWOOD       FAIR      23  19  86 W16       29.83R WCI  10
APPLETON       CLEAR     25  18  74 W9        29.87R WCI  15
BENSON         CLEAR     23  18  80 W10       29.88R WCI  12
ORTONVILLE     CLEAR     27  18  69 W8G16     29.86R WCI  18
MADISON        CLEAR     28  21  74 W12       29.87R WCI  18
WILLMAR        FAIR      21  18  86 SW14      29.89R WCI   8
$$
MNZ033>034-036-042>043-049>051-058-059-260100-
   Central Minnesota

CITY           SKY/WX    TMP DP  RH WIND       PRES   REMARKS
ST CLOUD       FAIR      26  19  74 W10       29.82R WCI  16
6HR MIN TEMP:  23; 6HR MAX TEMP:  29;

SAUK CENTRE    FAIR      24  18  79 SW14      29.82R WCI  11
PAYNESVILLE    FAIR      25  20  81 W13       29.85R WCI  14
PINE RIVER     CLOUDY    27  18  69 W8        29.79R WCI  18
BRAINERD       FAIR      26  17  68 SW13      29.77R WCI  15
STAPLES        FAIR      25  18  74 W10       29.78R WCI  15
LONG PRAIRIE   FAIR      25  19  80 S9        29.81R WCI  15
LITTLE FALLS   FAIR      27  16  63 SW6       29.81R WCI  20
LITCHFIELD     FAIR      27  21  80 W7        29.87R WCI  19
BUFFALO        FAIR      26  19  75 SW6       29.87R WCI  20
MAPLE LAKE     FAIR      27  21  79 SW7       29.86R WCI  20
HUTCHINSON     FAIR      26  20  77 SW14      29.88R WCI  14
$$
MNZ037-044-045-052-053-260100-
   East Central Minnesota

CITY           SKY/WX    TMP DP  RH WIND       PRES   REMARKS
PRINCETON      FAIR      28  21  74 SW6       29.83R WCI  22
CAMBRIDGE      FAIR      28  19  69 SW8       29.84R WCI  20
RUSH CITY      FAIR      27  20  75 SW8       29.82R WCI  19
MOOSE LAKE     CLOUDY    28  21  74 SW7       29.74R WCI  21
HINCKLEY       FAIR      28  21  74 SW9       29.79R WCI  20
CLOQUET        CLOUDY    27  18  69 SW15      29.71R WCI  15
MCGREGOR       CLOUDY    28  21  74 SW7       29.75R WCI  21
$$
MNZ071>073-080-081-089-090-097-098-260100-
   Southwest Minnesota

CITY           SKY/WX    TMP DP  RH WIND       PRES   REMARKS
MONTEVIDEO     CLEAR     27  18  69 W6        29.89R WCI  20
GRANITE FALLS  CLEAR     27  20  75 SW16      29.90S WCI  15
CANBY          CLEAR     28  21  74 SW10G16   29.89R WCI  19
MARSHALL       CLEAR     25  18  74 W16       29.90R WCI  12
REDWOOD FALLS  CLEAR     26  19  74 W9        29.90R WCI  17
OLIVIA         CLEAR     21  16  79 W9        29.89R WCI  11
PIPESTONE      CLEAR     19  16  86 SW6       29.91R WCI  11
WORTHINGTON    CLEAR     26  19  74 SW16      29.92R WCI  14
JACKSON        CLEAR     27  19  74 SW16      29.92R WCI  14
TRACY          CLEAR     26  20  80 W10       29.90R WCI  16
SLAYTON        CLEAR     25  20  80 SW17      29.90R WCI  12
$$
MNZ065>067-074>077-082>085-091>093-260100-
   South Central Minnesota

CITY           SKY/WX    TMP DP  RH WIND       PRES   REMARKS
NEW ULM        CLEAR     19  14  79 W6        29.91R WCI  11
ST JAMES       CLEAR     25  19  80 SW12      29.93R WCI  14
FAIRMONT       CLEAR     25  19  78 SW14      29.95R WCI  13
GLENCOE        FAIR      28  21  76 SW8       29.89R WCI  19
FARIBAULT      FAIR      25  19  80 S7        29.92R WCI  17
OWATONNA       FAIR      21  18  86 SW13      29.92R WCI   9
WASECA         FAIR      23  19  86 SW12      29.94R WCI  12
ALBERT LEA     FAIR      25  18  74 SW7       29.94R WCI  17
$$
MNZ078>079-086>088-094>096-260100-
   Southeast Minnesota

CITY           SKY/WX    TMP DP  RH WIND       PRES   REMARKS
ROCHESTER      FAIR      22  18  85 SW13      29.93R WCI  10
6HR MIN TEMP:  22; 6HR MAX TEMP:  25;

RED WING       FAIR      27  18  69 SW9       29.91R WCI  17
STANTON        FAIR      25  19  80 S7        29.90R WCI  17
DODGE CENTER   FAIR      21  18  86 SW14      29.92R WCI   8
WINONA         FAIR      30  23  74 SW8       29.94R WCI  23
AUSTIN         FAIR      25  19  80 SW7       29.94R WCI  17
PRESTON        FAIR      24  19  81 SW14      29.94S WCI  12
$$
ABBREVIATIONS USED IN REMARKS
   TC - TEMPERATURES IN CELSIUS
  WCI - WIND CHILL INDEX
   HX - HEAT INDEX
  VSB - VISIBILITY
$$




USA.gov is the U.S. government's official web portal to all federal, state and local government web resources and services.